GW6425 Weather Reports


time (UTC)temp
F
wind
direction
speed
knots
gust
knots
rain 1hr
in
rain 24hr
in
rain mn
in
humidity
%
barometer
mb
20260505171156 86 188 1.7 3.5 0.00 0.00 0.00 84 1008.3
20260505170657 86 123 0.9 1.7 0.00 0.00 0.00 84 1008.4
20260505170156 86 146 1.7 2.6 0.00 0.00 0.00 84 1008.4
20260505165656 86 149 0.9 2.6 0.00 0.00 0.00 84 1008.4
20260505165156 86 142 0.9 2.6 0.00 0.00 0.00 84 1008.4
20260505164656 86 150 1.7 3.5 0.00 0.00 0.00 84 1008.4
20260505164156 86 177 0.9 2.6 0.00 0.00 0.00 84 1008.4
20260505163656 86 179 0.9 1.7 0.00 0.00 0.00 84 1008.3
20260505163157 86 143 0.9 1.7 0.00 0.00 0.00 85 1008.3
20260505162656 86 123 0.9 2.6 0.00 0.00 0.00 85 1008.3
20260505162156 86 170 1.7 2.6 0.00 0.00 0.00 85 1008.3
20260505161657 86 153 0.9 2.6 0.00 0.00 0.00 85 1008.3
20260505161158 86 160 1.7 3.5 0.00 0.00 0.00 84 1008.3
20260505160656 86 188 1.7 2.6 0.00 0.00 0.00 85 1008.3
20260505160157 86 186 1.7 3.5 0.00 0.00 0.00 85 1008.2
20260505153156 86 172 1.7 3.5 0.00 0.00 0.00 84 1008.1
20260505152657 86 180 1.7 5.2 0.00 0.00 0.00 84 1008.0
20260505152158 86 177 0.9 2.6 0.00 0.00 0.00 84 1008.0
20260505151657 86 175 1.7 3.5 0.00 0.00 0.00 84 1007.9
20260505151157 86 169 1.7 3.5 0.00 0.00 0.00 84 1007.9
20260505150656 86 166 3.5 5.2 0.00 0.00 0.00 84 1007.8
20260505150157 86 171 1.7 2.6 0.00 0.00 0.00 84 1007.8
20260505140157 86 172 2.6 4.3 0.00 0.00 0.00 83 1007.0
20260505130156 86 151 1.7 3.5 0.00 0.00 0.00 82 1006.4
20260505124656 87 152 2.6 4.3 0.00 0.00 0.00 81 1006.3
20260505124157 87 140 1.7 3.5 0.00 0.00 0.00 81 1006.2
20260505123657 87 135 1.7 4.3 0.00 0.00 0.00 81 1006.1
20260505123156 87 123 2.6 6.1 0.00 0.00 0.00 80 1006.1
20260505122658 87 138 3.5 7.8 0.00 0.00 0.00 80 1006.0
20260505122158 87 143 1.7 3.5 0.00 0.00 0.00 79 1006.0
20260505121658 87 145 2.6 3.5 0.00 0.00 0.00 79 1006.0
20260505121157 87 194 0.9 2.6 0.00 0.00 0.00 79 1005.9
20260505120656 88 102 3.5 6.1 0.00 0.00 0.00 77 1005.9
20260505120156 88 156 2.6 5.2 0.00 0.00 0.00 77 1005.9
20260505115656 88 112 1.7 5.2 0.00 0.00 0.00 76 1005.8
20260505115157 88 198 1.7 2.6 0.00 0.00 0.00 76 1005.9
20260505114656 88 120 2.6 5.2 0.00 0.00 0.00 75 1005.8
20260505114157 88 168 1.7 3.5 0.00 0.00 0.00 75 1005.7
20260505113656 88 168 2.6 6.1 0.00 0.00 0.00 74 1005.8
20260505113157 88 168 2.6 5.2 0.00 0.00 0.00 74 1005.7
20260505112656 88 163 1.7 5.2 0.00 0.00 0.00 74 1005.8
20260505112156 89 160 3.5 5.2 0.00 0.00 0.00 73 1005.8
20260505111656 89 161 3.5 6.1 0.00 0.00 0.00 72 1005.8
20260505111156 89 133 2.6 6.1 0.00 0.00 0.00 72 1005.9
20260505110656 89 118 2.6 6.1 0.00 0.00 0.00 72 1005.9
20260505110156 90 154 3.5 7.8 0.00 0.00 0.00 72 1005.9
20260505102156 91 114 1.7 2.6 0.00 0.00 0.00 68 1006.0
20260505101657 91 165 2.6 3.5 0.00 0.00 0.00 68 1005.9
20260505101156 91 188 3.5 6.1 0.00 0.00 0.00 67 1006.0
20260505100656 91 143 3.5 6.1 0.00 0.00 0.00 67 1006.1
20260505100157 92 160 1.7 3.5 0.00 0.00 0.00 66 1006.1
20260505095657 92 154 3.5 7.0 0.00 0.00 0.00 65 1006.1
20260505095157 92 142 3.5 7.8 0.00 0.00 0.00 64 1006.1
20260505094656 92 185 3.5 5.2 0.00 0.00 0.00 63 1006.2
20260505094157 92 147 3.5 6.1 0.00 0.00 0.00 62 1006.3
20260505093656 92 122 1.7 4.3 0.00 0.00 0.00 62 1006.3
20260505093156 92 150 2.6 4.3 0.00 0.00 0.00 63 1006.3
20260505092656 92 146 2.6 5.2 0.00 0.00 0.00 63 1006.4
20260505092157 92 143 3.5 7.0 0.00 0.00 0.00 62 1006.4
20260505091656 92 127 3.5 7.8 0.00 0.00 0.00 61 1006.4
20260505091156 92 158 2.6 4.3 0.00 0.00 0.00 62 1006.5
20260505090657 92 145 4.3 6.1 0.00 0.00 0.00 62 1006.6
20260505090156 92 164 1.7 4.3 0.00 0.00 0.00 63 1006.6
20260505085657 92 170 3.5 7.8 0.00 0.00 0.00 63 1006.7
20260505085157 93 146 2.6 6.1 0.00 0.00 0.00 62 1006.7
20260505084657 93 165 3.5 6.1 0.00 0.00 0.00 62 1006.7
20260505084156 93 124 2.6 5.2 0.00 0.00 0.00 60 1006.7
20260505083657 93 139 2.6 5.2 0.00 0.00 0.00 60 1006.8
20260505083156 93 165 1.7 3.5 0.00 0.00 0.00 60 1006.9
20260505082656 93 104 3.5 7.0 0.00 0.00 0.00 58 1006.9
20260505082156 93 155 2.6 7.0 0.00 0.00 0.00 56 1007.0
20260505081657 94 176 3.5 5.2 0.00 0.00 0.00 56 1007.0
20260505081157 94 172 2.6 4.3 0.00 0.00 0.00 56 1007.0
20260505080657 94 144 1.7 4.3 0.00 0.00 0.00 55 1007.0
20260505080156 94 158 2.6 5.2 0.00 0.00 0.00 57 1007.1
20260505075656 95 114 3.5 7.8 0.00 0.00 0.00 54 1007.1
20260505075156 95 164 2.6 4.3 0.00 0.00 0.00 54 1007.2
20260505074656 94 152 3.5 5.2 0.00 0.00 0.00 52 1007.2
20260505074156 95 157 3.5 7.0 0.00 0.00 0.00 52 1007.2
20260505073656 94 100 1.7 3.5 0.00 0.00 0.00 54 1007.2
20260505073157 94 93 2.6 7.0 0.00 0.00 0.00 55 1007.3
20260505072656 94 157 2.6 4.3 0.00 0.00 0.00 54 1007.4
20260505072156 94 130 2.6 5.2 0.00 0.00 0.00 55 1007.5
20260505071656 94 138 1.7 4.3 0.00 0.00 0.00 55 1007.6
20260505071159 94 178 1.7 3.5 0.00 0.00 0.00 55 1007.7
20260505070657 94 81 2.6 7.0 0.00 0.00 0.00 56 1007.8
20260505070157 95 171 2.6 5.2 0.00 0.00 0.00 54 1007.9
20260505065656 95 169 1.7 5.2 0.00 0.00 0.00 54 1007.9
20260505065156 95 92 2.6 5.2 0.00 0.00 0.00 53 1007.9
20260505064656 96 160 1.7 3.5 0.00 0.00 0.00 53 1008.0
20260505064156 96 153 2.6 3.5 0.00 0.00 0.00 54 1008.1
20260505063656 96 141 3.5 3.5 0.00 0.00 0.00 53 1008.1
20260505063156 96 156 1.7 2.6 0.00 0.00 0.00 53 1008.2
20260505062656 96 91 2.6 3.5 0.00 0.00 0.00 53 1008.3
20260505062156 96 159 2.6 2.6 0.00 0.00 0.00 53 1008.3
20260505061657 95 145 2.6 3.5 0.00 0.00 0.00 53 1008.3
20260505061156 95 171 2.6 3.5 0.00 0.00 0.00 53 1008.4
20260505060656 94 101 0.9 1.7 0.00 0.00 0.00 55 1008.4
20260505060157 94 69 1.7 3.5 0.00 0.00 0.00 56 1008.5
20260505055656 95 167 1.7 1.7 0.00 0.00 0.00 55 1008.6
20260505055157 95 188 2.6 3.5 0.00 0.00 0.00 55 1008.5
20260505054656 97 151 1.7 2.6 0.00 0.00 0.00 53 1008.6
20260505054157 96 329 0.9 0.9 0.00 0.00 0.00 50 1008.5
20260505053657 96 47 1.7 2.6 0.00 0.00 0.00 52 1008.6
20260505053157 96 190 0.9 1.7 0.00 0.00 0.00 51 1008.7
20260505052656 96 195 0.9 1.7 0.00 0.00 0.00 51 1008.7
20260505052156 96 212 1.7 2.6 0.00 0.00 0.00 52 1008.7
20260505051656 96 316 0.9 1.7 0.00 0.00 0.00 52 1008.7
20260505051157 96 233 0.9 1.7 0.00 0.00 0.00 53 1008.8
20260505050656 96 164 0.9 1.7 0.00 0.00 0.00 52 1008.8
20260505050157 96 202 1.7 2.6 0.00 0.00 0.00 52 1008.9
20260505041656 92 198 1.7 2.6 0.00 0.00 0.00 57 1008.9
20260505041156 92 217 1.7 1.7 0.00 0.00 0.00 58 1008.8
20260505040656 92 209 0.9 1.7 0.00 0.00 0.00 58 1008.8
20260505040156 93 212 2.6 6.1 0.00 0.00 0.00 57 1008.9
20260505035656 93 179 1.7 2.6 0.00 0.00 0.00 56 1008.8
20260505035156 94 194 1.7 1.7 0.00 0.00 0.00 55 1008.7
20260505034656 94 198 1.7 1.7 0.00 0.00 0.00 55 1008.7
20260505034156 93 201 1.7 1.7 0.00 0.00 0.00 56 1008.6
20260505033656 93 201 1.7 4.3 0.00 0.00 0.00 57 1008.5
20260505033156 93 48 1.7 2.6 0.00 0.00 0.00 57 1008.6
20260505032657 93 33 1.7 2.6 0.00 0.00 0.00 55 1008.5
20260505032157 93 5 1.7 2.6 0.00 0.00 0.00 56 1008.4
20260505031657 93 276 1.7 2.6 0.00 0.00 0.00 57 1008.4
20260505031201 93 188 1.7 1.7 0.00 0.00 0.00 56 1008.4
20260505030656 92 201 1.7 2.6 0.00 0.00 0.00 55 1008.3
20260505030200 92 218 1.7 1.7 0.00 0.00 0.00 56 1008.2
20260505025657 92 242 2.6 2.6 0.00 0.00 0.00 56 1008.3
20260505025157 92 206 2.6 3.5 0.00 0.00 0.00 55 1008.2
20260505024657 91 239 0.9 1.7 0.00 0.00 0.00 56 1008.2
20260505024156 91 210 1.7 1.7 0.00 0.00 0.00 56 1008.2
20260505023657 91 215 2.6 4.3 0.00 0.00 0.00 56 1008.2
20260505023156 91 212 1.7 2.6 0.00 0.00 0.00 56 1008.1
20260505022656 92 215 1.7 2.6 0.00 0.00 0.00 55 1008.1
20260505022156 92 158 1.7 2.6 0.00 0.00 0.00 55 1008.0
20260505021656 92 184 1.7 1.7 0.00 0.00 0.00 56 1007.9
20260505021157 91 201 0.9 1.7 0.00 0.00 0.00 56 1007.9
20260505020657 91 204 1.7 1.7 0.00 0.00 0.00 57 1007.9
20260505020158 90 224 0.0 0.9 0.00 0.00 0.00 59 1007.8
20260505015657 89 273 0.9 0.9 0.00 0.00 0.00 59 1007.9
20260505015156 88 39 0.9 0.9 0.00 0.00 0.00 61 1007.9
20260505014656 87 236 0.9 0.9 0.00 0.00 0.00 61 1007.9
20260505014156 87 35 0.0 0.9 0.00 0.00 0.00 62 1007.7
20260505013656 86 16 0.9 0.9 0.00 0.00 0.00 63 1007.6
20260505013156 86 116 0.9 0.9 0.00 0.00 0.00 63 1007.6
20260505012656 86 231 0.0 0.9 0.00 0.00 0.00 64 1007.5
20260505012156 85 0 0.0 0.0 0.00 0.00 0.00 64 1007.5
20260505011656 85 127 0.0 0.0 0.00 0.00 0.00 64 1007.5
20260505011200 85 121 0.0 0.9 0.00 0.00 0.00 64 1007.4
20260505010657 85 0 0.0 0.0 0.00 0.00 0.00 65 1007.3
20260505010156 85 83 0.0 0.9 0.00 0.00 0.00 66 1007.2
20260505005657 85 316 0.9 0.9 0.00 0.00 0.00 66 1007.1
20260505005156 85 211 0.0 0.0 0.00 0.00 0.00 66 1007.2
20260505004656 85 145 0.9 0.9 0.00 0.00 0.00 66 1007.2
20260505004156 85 170 0.0 0.0 0.00 0.00 0.00 66 1007.1
20260505003656 85 160 0.9 0.9 0.00 0.00 0.00 66 1007.1
20260505003158 85 82 0.9 0.9 0.00 0.00 0.00 66 1007.1
20260505002656 85 283 0.9 0.9 0.00 0.00 0.00 66 1007.1
20260505002157 85 287 0.0 0.0 0.00 0.00 0.00 66 1007.0
20260505001658 85 69 0.0 0.9 0.00 0.00 0.00 66 1007.1
20260505001157 85 48 0.0 0.9 0.00 0.00 0.00 66 1007.1
20260505000656 85 132 0.9 1.7 0.00 0.00 0.00 67 1007.0
20260505000156 85 246 0.9 0.9 0.00 0.00 0.00 68 1007.1
20260504235657 85 0 0.0 0.0 0.00 0.00 0.00 68 1007.1
20260504235156 85 301 0.0 1.7 0.00 0.00 0.00 68 1007.1
20260504234656 85 64 0.0 1.7 0.00 0.00 0.00 68 1007.1
20260504234157 85 130 0.9 1.7 0.00 0.00 0.00 68 1007.0
20260504233656 85 54 0.9 0.9 0.00 0.00 0.00 69 1007.0
20260504233158 85 19 0.9 1.7 0.00 0.00 0.00 69 1007.1
20260504232657 85 193 0.9 0.9 0.00 0.00 0.00 69 1007.1
20260504232157 85 166 0.9 1.7 0.00 0.00 0.00 69 1007.1
20260504231702 85 21 0.9 1.7 0.00 0.00 0.00 68 1007.1
20260504231156 85 39 0.9 1.7 0.00 0.00 0.00 68 1007.1
20260504230656 85 352 1.7 2.6 0.00 0.00 0.00 69 1007.0
20260504230158 85 45 0.9 1.7 0.00 0.00 0.00 70 1007.1
20260504225656 85 313 0.0 0.9 0.00 0.00 0.00 70 1007.0
20260504225156 85 232 1.7 2.6 0.00 0.00 0.00 70 1007.0
20260504224656 85 229 0.9 1.7 0.00 0.00 0.00 70 1006.9
20260504224156 85 211 1.7 3.5 0.00 0.00 0.00 70 1006.9
20260504223656 85 264 0.9 0.9 0.00 0.00 0.00 71 1006.9
20260504223158 85 224 0.9 2.6 0.00 0.00 0.00 71 1007.0
20260504222656 85 18 0.9 1.7 0.00 0.00 0.00 71 1007.0
20260504222158 85 166 0.9 1.7 0.00 0.00 0.00 71 1007.0
20260504221656 85 218 0.9 1.7 0.00 0.00 0.00 72 1007.1
20260504221156 85 213 0.9 2.6 0.00 0.00 0.00 72 1007.1
20260504220657 85 245 0.9 1.7 0.00 0.00 0.00 72 1007.1
20260504220158 85 221 1.7 2.6 0.00 0.00 0.00 72 1007.2
20260504215656 85 156 1.7 2.6 0.00 0.00 0.00 72 1007.3
20260504215156 85 206 1.7 3.5 0.00 0.00 0.00 72 1007.4
20260504214657 85 154 0.9 1.7 0.00 0.00 0.00 72 1007.4
20260504214156 85 29 0.9 1.7 0.00 0.00 0.00 72 1007.4
20260504213656 84 231 0.9 1.7 0.00 0.00 0.00 73 1007.5
20260504213156 84 202 0.9 1.7 0.00 0.00 0.00 73 1007.7
20260504212657 84 23 0.9 1.7 0.00 0.00 0.00 73 1007.7
20260504212157 84 45 0.9 1.7 0.00 0.00 0.00 73 1007.8
20260504211656 84 98 1.7 3.5 0.00 0.00 0.00 74 1007.9
20260504211157 84 265 0.9 2.6 0.00 0.00 0.00 74 1007.9
20260504210657 84 59 0.9 1.7 0.00 0.00 0.00 74 1007.9
20260504210157 85 103 1.7 2.6 0.00 0.00 0.00 74 1007.9
20260504205656 85 81 1.7 3.5 0.00 0.00 0.00 73 1007.8
20260504205159 85 45 1.7 2.6 0.00 0.00 0.00 72 1007.8
20260504204657 86 57 0.9 2.6 0.00 0.00 0.00 72 1007.7
20260504204157 86 30 1.7 4.3 0.00 0.00 0.00 72 1007.7
20260504203658 87 110 0.9 1.7 0.00 0.00 0.00 73 1007.6
20260504203156 87 65 0.9 1.7 0.00 0.00 0.00 74 1007.5
20260504202657 87 73 0.9 1.7 0.00 0.00 0.00 75 1007.5
20260504202157 87 226 0.9 1.7 0.00 0.00 0.00 75 1007.5
20260504201656 87 199 0.9 2.6 0.00 0.00 0.00 75 1007.4
20260504201157 87 240 0.9 1.7 0.00 0.00 0.00 75 1007.4
20260504200657 87 222 1.7 2.6 0.00 0.00 0.00 76 1007.3
20260504200157 87 193 1.7 4.3 0.00 0.00 0.00 76 1007.2
20260504195656 87 160 0.9 1.7 0.00 0.00 0.00 76 1007.2
20260504195157 87 162 0.9 2.6 0.00 0.00 0.00 76 1007.2
20260504194659 87 188 1.7 3.5 0.00 0.00 0.00 76 1007.3
20260504194157 87 217 1.7 4.3 0.00 0.00 0.00 76 1007.3
20260504193657 87 182 1.7 3.5 0.00 0.00 0.00 76 1007.3
20260504193156 87 226 0.9 2.6 0.00 0.00 0.00 76 1007.3
20260504192656 87 174 1.7 2.6 0.00 0.00 0.00 76 1007.3
20260504192156 87 179 0.9 1.7 0.00 0.00 0.00 76 1007.3
20260504191657 87 205 0.9 3.5 0.00 0.00 0.00 76 1007.3
20260504191157 87 171 0.9 1.7 0.00 0.00 0.00 76 1007.4
20260504190656 87 166 1.7 3.5 0.00 0.00 0.00 75 1007.4
20260504190157 87 105 0.9 2.6 0.00 0.00 0.00 75 1007.3
20260504185656 87 192 1.7 3.5 0.00 0.00 0.00 75 1007.4
20260504185157 87 185 1.7 3.5 0.00 0.00 0.00 74 1007.3
20260504184658 87 177 0.9 1.7 0.00 0.00 0.00 73 1007.5
20260504184156 87 115 0.9 1.7 0.00 0.00 0.00 72 1007.5
20260504183656 87 169 0.9 1.7 0.00 0.00 0.00 72 1007.6
20260504183157 87 237 1.7 3.5 0.00 0.00 0.00 72 1007.8
20260504182657 87 223 1.7 2.6 0.00 0.00 0.01 72 1007.8
20260504182158 87 262 1.7 1.7 0.00 0.00 0.01 72 1007.7
20260504181656 87 245 0.9 2.6 0.00 0.00 0.01 72 1007.8
20260504181157 88 315 1.7 4.3 0.00 0.00 0.01 72 1007.7
20260504180657 88 219 1.7 3.5 0.00 0.00 0.01 73 1007.7
20260504180158 88 186 1.7 2.6 0.00 0.00 0.01 74 1007.6
20260504175657 88 229 1.7 4.3 0.00 0.00 0.01 73 1007.6
20260504175158 88 218 2.6 4.3 0.00 0.00 0.01 73 1007.6
20260504174656 88 195 0.9 2.6 0.00 0.00 0.01 74 1007.7
20260504174157 88 201 1.7 1.7 0.00 0.00 0.01 74 1007.8
20260504173657 88 177 2.6 3.5 0.00 0.00 0.01 73 1007.8
20260504173157 88 214 2.6 3.5 0.00 0.00 0.01 73 1007.8
20260504172657 88 221 1.7 5.2 0.00 0.00 0.01 73 1007.9
20260504172157 88 195 1.7 3.5 0.00 0.00 0.01 73 1007.9
20260504171701 88 216 2.6 5.2 0.00 0.00 0.01 73 1008.0